GSLV R/B, 62851

Orbit data source: Space-Track

GSLV R/B, 62851 is space debris in HEO originally from a launch on Wed, 29 Jan 2025 UTC launched from the Sirharikota (SRI). Debris objects in space refer to the collection of defunct objects orbiting the Earth. Examples of debris include non-operational satellites, rocket bodies, and fragments generated from explosions, collisions, or faulty payload assembly.

Loading next visibility...
Identifier
62851, 2025-020B
Orbit
HEO
Last TLE update
6 days ago
Origin
Manufacturer
ISRO
Mission
Spacecraft
Bus & Motor
CUS15, Unknown motor
Mass
2,630 kg wet, 2,630 kg dry
Launch date (UTC)
2025-01-29 (3 months ago)
Launch vehicle
Unknown
Launch site
Sirharikota (SRI)
Object type
Payload
Rocket body
Debris
Shape & HBR
Cyl, 8.7 m
Radar Cross Section
22.211 m², Large (>1 m²)

Expand to show TLE details & history

TLE from 6 days ago
0 GSLV R/B
1 62851U 25020B   25123.85481901  .00020610  68673-6  13555-2 0  9996
2 62851  21.0854  47.5756 7351432 241.8999  27.5968  2.22358396  2093
Epoch: 2025-05-03T20:30Z
Definitive object data (Epoch: 2025-05-03T20:30:56.362Z)
Latitude
0.00039°
Longitude
-122.20968°
Altitude
11,089.218 km
Speed
5.437 km/s
True Right ascension
03h 10m 03s
True Declination
0° 00' 01"
Sunlit
Object was in daylight at TLE epoch
Visualization TLE readout
Latitude
20.27592°
Longitude
-17.54443°
Altitude
19,743.008 km
Speed
3.799 km/s
Apparent Right ascension
10h 12m 30s
Apparent Declination
9° 35' 42"
Sunlit
Object is in daylight
Visualization observer readout
Local Sidereal Time
22:31:24
Azimuth
6.115° NNE
Elevation
-40.295°
Doppler factor
1
Orbital elements
Apogee altitude
36,652.94 km
Perigee altitude
190.239 km
Semi-major axis
24,799.727 km
Eccentricity
0.7351432
Inclination
21.0854°
RAAN
47.5756°
Arg. of periapsis
241.8999°
True anomaly
118.04079°
Mean anomaly
27.5968°
Eccentric anomaly
66.10816°
Mean motion
0.55574 °/min
BSTAR
0.0013555
Orbital period
647.78 mins
Loading maneuver chart data...
Loading SW <> Apogee altitude chart data...
Loading historical data...
Loading historical data...
Loading historical data...
Loading historical data...
Loading historical data...
Loading historical data...
Loading historical data...
Other satellites on launch #20 in the year 2025 (2025-01-29 UTC)

GSLV R/B Visibility forecast

Observer location: undefined°, undefined°

Span
Click to sort rows by Start time (UTC) header in descending order
Start Az.
Max El. time (UTC)
Max El. Az.
Max El.
End time (UTC)
End Az.
589 mins2025-05-09 16:25:16.404Z152.765° SSE2025-05-10 00:07:16.404Z150.004° SSE42.025°2025-05-10 02:14:16.404Z116.919° SE
|